To NAV CANADA Home Page Login to a new session Search on AWWS site Feedback and Comments Disclaimer Vers la page française équivalente Tips FAQ What's new on the site To the Forecasts and Observations / NOTAM section To "File a Flight Plan" website Publications and other links Update of the User's profile FIC Telephone Numbers My Weather Data Folder Route Weather Data Regional Weather Data Local Weather Data To the Forecasts and Observations / NOTAM section
Request Generated 06/26/2017 at 22:28:39 UTC . Weather information available at that time is displayed.

METAR/TAF

KANGIRSUK/QC    

LWIS CYAS 262200Z AUTO 03018KT 03/02 A2944=
LWIS CYAS 262100Z AUTO 02015KT 03/02 A2942=
LWIS CYAS 262000Z AUTO 03013G18KT 03/02 A2941=

*** REMARK        : Forecast period has ended; this was the last TAF issued
*** REMARQUE : La période de prévision est échue; ceci était le dernier TAF qui a été émis
TAF AMD CYAS 262018Z 2617/2621 FCST CNCLD DUE NO OBS
RMK NXT FCST WILL BE ISSUED AT 271345Z=
Your time UTC time
Weather data provided by Environment Canada and NAV CANADA